| time (UTC) | temp F | wind direction | speed knots | gust knots | rain 1hr in | rain 24hr in | rain mn in | humidity % | barometer mb |
| 20260504235126 | 82 | 279 | 0.9 | 0.9 | 0.00 | 0.00 | 0.00 | 24 | 1000.3 |
| 20260504234553 | 83 | 286 | 0.9 | 0.9 | 0.00 | 0.00 | 0.00 | 30 | 1000.0 |
| 20260504234053 | 83 | 286 | 0.0 | 0.0 | 0.00 | 0.00 | 0.00 | 25 | 1000.0 |
| 20260504233552 | 83 | 286 | 0.0 | 0.9 | 0.00 | 0.00 | 0.00 | 26 | 1000.0 |
| 20260504233051 | 83 | 286 | 0.0 | 0.9 | 0.00 | 0.00 | 0.00 | 25 | 1000.0 |
| 20260504232550 | 84 | 279 | 0.0 | 4.3 | 0.00 | 0.00 | 0.00 | 26 | 1000.3 |
| 20260504232050 | 84 | 280 | 0.9 | 4.3 | 0.00 | 0.00 | 0.00 | 20 | 1000.3 |
| 20260504231518 | 84 | 282 | 1.7 | 7.0 | 0.00 | 0.00 | 0.00 | 20 | 1000.3 |
| 20260504231018 | 84 | 278 | 4.3 | 7.0 | 0.00 | 0.00 | 0.00 | 19 | 1000.0 |
| 20260504230517 | 85 | 275 | 1.7 | 5.2 | 0.00 | 0.00 | 0.00 | 20 | 1000.0 |
| 20260504230017 | 85 | 289 | 2.6 | 5.2 | 0.00 | 0.00 | 0.00 | 17 | 1000.0 |
| 20260504225516 | 85 | 273 | 3.5 | 6.1 | 0.00 | 0.00 | 0.00 | 19 | 1000.0 |
| 20260504225015 | 85 | 304 | 2.6 | 8.7 | 0.00 | 0.00 | 0.00 | 17 | 1000.0 |
| 20260504224515 | 86 | 292 | 4.3 | 8.7 | 0.00 | 0.00 | 0.00 | 17 | 1000.0 |
| 20260504224014 | 86 | 327 | 2.6 | 10.4 | 0.00 | 0.00 | 0.00 | 21 | 1000.0 |
| 20260504223513 | 86 | 266 | 6.1 | 10.4 | 0.00 | 0.00 | 0.00 | 21 | 1000.0 |
| 20260504223013 | 86 | 299 | 2.6 | 7.0 | 0.00 | 0.00 | 0.00 | 20 | 1000.0 |
| 20260504222512 | 86 | 290 | 3.5 | 6.1 | 0.00 | 0.00 | 0.00 | 21 | 1000.0 |
| 20260504222012 | 85 | 272 | 2.6 | 6.1 | 0.00 | 0.00 | 0.00 | 21 | 1000.0 |
| 20260504221511 | 85 | 278 | 3.5 | 6.1 | 0.00 | 0.00 | 0.00 | 20 | 1000.0 |
| 20260504221011 | 85 | 275 | 3.5 | 7.8 | 0.00 | 0.00 | 0.00 | 23 | 1000.0 |
| 20260504220510 | 85 | 291 | 2.6 | 7.8 | 0.00 | 0.00 | 0.00 | 24 | 1000.0 |
| 20260504220009 | 85 | 241 | 4.3 | 7.0 | 0.00 | 0.00 | 0.00 | 23 | 1000.0 |
| 20260504215508 | 86 | 268 | 4.3 | 8.7 | 0.00 | 0.00 | 0.00 | 23 | 1000.0 |
| 20260504215008 | 86 | 288 | 5.2 | 11.3 | 0.00 | 0.00 | 0.00 | 23 | 1000.0 |
| 20260504214507 | 86 | 286 | 5.2 | 11.3 | 0.00 | 0.00 | 0.00 | 23 | 1000.0 |
| 20260504214007 | 86 | 292 | 7.0 | 8.7 | 0.00 | 0.00 | 0.00 | 26 | 1000.0 |
| 20260504213506 | 86 | 267 | 4.3 | 7.8 | 0.00 | 0.00 | 0.00 | 24 | 1000.0 |
| 20260504213005 | 86 | 278 | 1.7 | 8.7 | 0.00 | 0.00 | 0.00 | 25 | 1000.0 |
| 20260504212434 | 86 | 289 | 5.2 | 9.6 | 0.00 | 0.00 | 0.00 | 25 | 1000.0 |
| 20260504211933 | 86 | 312 | 3.5 | 9.6 | 0.00 | 0.00 | 0.00 | 27 | 1000.0 |
| 20260504211433 | 85 | 290 | 2.6 | 5.2 | 0.00 | 0.00 | 0.00 | 27 | 1000.0 |
| 20260504210901 | 85 | 256 | 1.7 | 7.0 | 0.00 | 0.00 | 0.00 | 27 | 1000.0 |
| 20260504210400 | 85 | 288 | 1.7 | 7.0 | 0.00 | 0.00 | 0.00 | 25 | 1000.0 |
| 20260504205900 | 85 | 300 | 0.9 | 8.7 | 0.00 | 0.00 | 0.00 | 28 | 1000.0 |
| 20260504205359 | 85 | 269 | 4.3 | 8.7 | 0.00 | 0.00 | 0.00 | 27 | 1000.0 |
| 20260504204859 | 85 | 287 | 2.6 | 7.0 | 0.00 | 0.00 | 0.00 | 26 | 1000.3 |
| 20260504204358 | 85 | 266 | 3.5 | 6.1 | 0.00 | 0.00 | 0.00 | 25 | 1000.3 |
| 20260504203857 | 85 | 8 | 1.7 | 6.1 | 0.00 | 0.00 | 0.00 | 28 | 1000.3 |
| 20260504203357 | 86 | 267 | 4.3 | 9.6 | 0.00 | 0.00 | 0.00 | 23 | 1000.3 |
| 20260504202856 | 86 | 269 | 6.1 | 9.6 | 0.00 | 0.00 | 0.00 | 24 | 1000.3 |
| 20260504202356 | 86 | 334 | 2.6 | 7.8 | 0.00 | 0.00 | 0.00 | 25 | 1000.3 |
| 20260504201855 | 86 | 274 | 4.3 | 7.8 | 0.00 | 0.00 | 0.00 | 24 | 1000.3 |
| 20260504201354 | 86 | 269 | 3.5 | 7.8 | 0.00 | 0.00 | 0.00 | 22 | 1000.7 |
| 20260504200853 | 85 | 281 | 2.6 | 8.7 | 0.00 | 0.00 | 0.00 | 27 | 1000.3 |
| 20260504200353 | 85 | 253 | 2.6 | 9.6 | 0.00 | 0.00 | 0.00 | 26 | 1000.7 |
| 20260504195852 | 85 | 245 | 5.2 | 9.6 | 0.00 | 0.00 | 0.00 | 24 | 1000.3 |
| 20260504195351 | 85 | 286 | 5.2 | 7.8 | 0.00 | 0.00 | 0.00 | 23 | 1000.3 |
| 20260504194850 | 85 | 286 | 1.7 | 7.0 | 0.00 | 0.00 | 0.00 | 26 | 1000.3 |
| 20260504194350 | 85 | 273 | 2.6 | 6.1 | 0.00 | 0.00 | 0.00 | 29 | 1000.3 |
| 20260504193849 | 85 | 276 | 2.6 | 6.1 | 0.00 | 0.00 | 0.00 | 29 | 1000.3 |
| 20260504193348 | 85 | 279 | 1.7 | 6.1 | 0.00 | 0.00 | 0.00 | 28 | 1000.7 |
| 20260504192848 | 85 | 256 | 2.6 | 8.7 | 0.00 | 0.00 | 0.00 | 30 | 1000.3 |
| 20260504192347 | 85 | 237 | 4.3 | 8.7 | 0.00 | 0.00 | 0.00 | 28 | 1000.3 |
| 20260504191816 | 85 | 246 | 4.3 | 8.7 | 0.00 | 0.00 | 0.00 | 27 | 1000.7 |
| 20260504191315 | 85 | 257 | 6.1 | 7.8 | 0.00 | 0.00 | 0.00 | 28 | 1000.7 |
| 20260504190814 | 85 | 258 | 3.5 | 7.0 | 0.00 | 0.00 | 0.00 | 29 | 1000.7 |
| 20260504190314 | 85 | 266 | 2.6 | 7.0 | 0.00 | 0.00 | 0.00 | 27 | 1000.7 |
| 20260504185813 | 85 | 240 | 3.5 | 7.8 | 0.00 | 0.00 | 0.00 | 31 | 1000.7 |
| 20260504185313 | 84 | 225 | 3.5 | 7.8 | 0.00 | 0.00 | 0.00 | 27 | 1000.7 |
| 20260504184812 | 84 | 285 | 3.5 | 12.2 | 0.00 | 0.00 | 0.00 | 30 | 1001.0 |
| 20260504184311 | 84 | 271 | 2.6 | 12.2 | 0.00 | 0.00 | 0.00 | 32 | 1000.7 |
| 20260504183740 | 84 | 222 | 3.5 | 8.7 | 0.00 | 0.00 | 0.00 | 35 | 1000.7 |
| 20260504183239 | 84 | 241 | 6.1 | 8.7 | 0.00 | 0.00 | 0.00 | 31 | 1001.0 |
| 20260504182738 | 83 | 280 | 0.9 | 10.4 | 0.00 | 0.00 | 0.00 | 34 | 1000.7 |
| 20260504182237 | 83 | 285 | 3.5 | 10.4 | 0.00 | 0.00 | 0.00 | 32 | 1001.0 |
| 20260504181737 | 83 | 254 | 4.3 | 7.8 | 0.00 | 0.00 | 0.00 | 33 | 1001.0 |
| 20260504181236 | 82 | 243 | 3.5 | 7.0 | 0.00 | 0.00 | 0.00 | 36 | 1001.0 |
| 20260504180736 | 82 | 246 | 4.3 | 7.0 | 0.00 | 0.00 | 0.00 | 35 | 1001.0 |
| 20260504180235 | 82 | 283 | 5.2 | 7.0 | 0.00 | 0.00 | 0.00 | 35 | 1001.0 |
| 20260504175735 | 82 | 249 | 4.3 | 7.0 | 0.00 | 0.00 | 0.00 | 35 | 1001.4 |
| 20260504175234 | 82 | 279 | 2.6 | 6.1 | 0.00 | 0.00 | 0.00 | 36 | 1001.4 |
| 20260504174733 | 81 | 219 | 2.6 | 8.7 | 0.00 | 0.00 | 0.00 | 37 | 1001.4 |
| 20260504174233 | 81 | 237 | 3.5 | 8.7 | 0.00 | 0.00 | 0.00 | 37 | 1001.4 |
| 20260504173732 | 81 | 244 | 3.5 | 7.8 | 0.00 | 0.00 | 0.00 | 36 | 1001.4 |
| 20260504173231 | 81 | 247 | 2.6 | 7.8 | 0.00 | 0.00 | 0.00 | 38 | 1001.4 |
| 20260504172731 | 80 | 237 | 2.6 | 9.6 | 0.00 | 0.00 | 0.00 | 39 | 1001.4 |
| 20260504172230 | 80 | 216 | 4.3 | 9.6 | 0.00 | 0.00 | 0.00 | 39 | 1001.4 |
| 20260504171730 | 80 | 234 | 4.3 | 9.6 | 0.00 | 0.00 | 0.00 | 39 | 1001.4 |
| 20260504171229 | 80 | 230 | 1.7 | 9.6 | 0.00 | 0.00 | 0.00 | 39 | 1001.7 |
| 20260504170728 | 79 | 243 | 1.7 | 7.0 | 0.00 | 0.00 | 0.00 | 38 | 1001.7 |
| 20260504170228 | 79 | 226 | 4.3 | 9.6 | 0.00 | 0.00 | 0.00 | 38 | 1001.7 |
| 20260504150908 | 73 | 245 | 4.3 | 12.2 | 0.00 | 0.00 | 0.00 | 47 | 1002.0 |
| 20260504150407 | 73 | 238 | 5.2 | 12.2 | 0.00 | 0.00 | 0.00 | 44 | 1002.0 |
| 20260504141330 | 71 | 255 | 4.3 | 7.8 | 0.00 | 0.00 | 0.00 | 47 | 1002.4 |
| 20260504140829 | 71 | 245 | 3.5 | 7.0 | 0.00 | 0.00 | 0.00 | 47 | 1002.4 |
| 20260504140329 | 70 | 230 | 4.3 | 7.0 | 0.00 | 0.00 | 0.00 | 48 | 1002.4 |
| 20260504130821 | 65 | 186 | 0.9 | 4.3 | 0.00 | 0.00 | 0.00 | 54 | 1002.7 |
| 20260504130321 | 65 | 231 | 0.9 | 4.3 | 0.00 | 0.00 | 0.00 | 55 | 1002.7 |
| 20260504120241 | 61 | 138 | 0.0 | 5.2 | 0.00 | 0.00 | 0.00 | 58 | 1002.4 |
| 20260504110235 | 59 | 235 | 1.7 | 3.5 | 0.00 | 0.00 | 0.00 | 61 | 1002.4 |
| 20260504100156 | 60 | 105 | 0.9 | 0.9 | 0.00 | 0.00 | 0.00 | 59 | 1003.0 |
| 20260504081806 | 63 | 194 | 0.9 | 0.9 | 0.00 | 0.00 | 0.00 | 52 | 1004.4 |
| 20260504081234 | 63 | 98 | 0.9 | 0.9 | 0.00 | 0.00 | 0.00 | 52 | 1004.4 |
| 20260504080734 | 63 | 106 | 0.9 | 0.9 | 0.00 | 0.00 | 0.00 | 51 | 1004.4 |
| 20260504080233 | 64 | 103 | 0.9 | 0.9 | 0.00 | 0.00 | 0.00 | 51 | 1004.7 |
| 20260504050404 | 62 | 106 | 0.9 | 0.9 | 0.00 | 0.00 | 0.00 | 53 | 1007.1 |
| 20260504045904 | 62 | 106 | 0.0 | 0.0 | 0.00 | 0.00 | 0.00 | 52 | 1007.5 |
| 20260504045403 | 62 | 106 | 0.0 | 0.9 | 0.00 | 0.00 | 0.00 | 51 | 1007.5 |
| 20260504044902 | 62 | 106 | 0.9 | 0.9 | 0.00 | 0.00 | 0.00 | 53 | 1007.5 |
| 20260504044402 | 62 | 107 | 0.9 | 0.9 | 0.00 | 0.00 | 0.00 | 53 | 1007.5 |
| 20260504043901 | 62 | 106 | 0.0 | 0.9 | 0.00 | 0.00 | 0.00 | 53 | 1007.8 |
| 20260504043401 | 62 | 105 | 0.9 | 0.9 | 0.00 | 0.00 | 0.00 | 52 | 1007.8 |
| 20260504042900 | 62 | 105 | 0.0 | 0.9 | 0.00 | 0.00 | 0.00 | 52 | 1007.8 |
| 20260504042400 | 62 | 103 | 0.0 | 0.9 | 0.00 | 0.00 | 0.00 | 52 | 1007.8 |
| 20260504041859 | 62 | 103 | 0.0 | 0.0 | 0.00 | 0.00 | 0.00 | 53 | 1007.8 |
| 20260504041358 | 62 | 103 | 0.0 | 0.0 | 0.00 | 0.00 | 0.00 | 56 | 1008.1 |
| 20260504040857 | 63 | 103 | 0.0 | 0.0 | 0.00 | 0.00 | 0.00 | 57 | 1008.1 |
| 20260504040357 | 64 | 103 | 0.0 | 0.0 | 0.00 | 0.00 | 0.00 | 58 | 1008.1 |
| 20260504035856 | 64 | 103 | 0.0 | 0.0 | 0.00 | 0.00 | 0.00 | 53 | 1008.1 |
| 20260504035355 | 64 | 104 | 0.0 | 0.9 | 0.00 | 0.00 | 0.00 | 49 | 1007.8 |
| 20260504034823 | 64 | 103 | 0.9 | 0.9 | 0.00 | 0.00 | 0.00 | 49 | 1007.8 |
| 20260504034323 | 65 | 106 | 0.0 | 0.0 | 0.00 | 0.00 | 0.00 | 48 | 1007.8 |
| 20260504033822 | 65 | 106 | 0.0 | 0.9 | 0.00 | 0.00 | 0.00 | 45 | 1007.8 |
| 20260504033250 | 65 | 105 | 0.0 | 0.9 | 0.00 | 0.00 | 0.00 | 44 | 1007.8 |
| 20260504032750 | 65 | 103 | 0.0 | 0.9 | 0.00 | 0.00 | 0.00 | 48 | 1007.8 |
| 20260504032249 | 65 | 103 | 0.0 | 0.9 | 0.00 | 0.00 | 0.00 | 46 | 1008.1 |
| 20260504031749 | 65 | 103 | 0.9 | 0.9 | 0.00 | 0.00 | 0.00 | 45 | 1007.8 |
| 20260504031248 | 66 | 108 | 0.9 | 2.6 | 0.00 | 0.00 | 0.00 | 46 | 1007.8 |
| 20260504030747 | 66 | 46 | 0.0 | 2.6 | 0.00 | 0.00 | 0.00 | 43 | 1007.8 |
| 20260504030247 | 66 | 99 | 0.0 | 0.9 | 0.00 | 0.00 | 0.00 | 42 | 1007.5 |
| 20260504025746 | 67 | 97 | 0.0 | 0.9 | 0.00 | 0.00 | 0.00 | 42 | 1007.8 |
| 20260504025214 | 67 | 97 | 0.0 | 0.9 | 0.00 | 0.00 | 0.00 | 41 | 1007.8 |
| 20260504024714 | 67 | 97 | 0.9 | 0.9 | 0.00 | 0.00 | 0.00 | 41 | 1007.8 |
| 20260504024142 | 67 | 97 | 0.9 | 0.9 | 0.00 | 0.00 | 0.00 | 41 | 1007.8 |
| 20260504023641 | 66 | 98 | 0.9 | 0.9 | 0.00 | 0.00 | 0.00 | 41 | 1007.8 |
| 20260504023140 | 66 | 98 | 0.0 | 0.0 | 0.00 | 0.00 | 0.00 | 43 | 1007.8 |
| 20260504022640 | 67 | 98 | 0.0 | 0.9 | 0.00 | 0.00 | 0.00 | 44 | 1007.8 |
| 20260504022139 | 68 | 98 | 0.0 | 0.9 | 0.00 | 0.00 | 0.00 | 42 | 1007.8 |
| 20260504021639 | 68 | 98 | 0.0 | 0.9 | 0.00 | 0.00 | 0.00 | 41 | 1007.5 |
| 20260504021138 | 68 | 96 | 0.9 | 0.9 | 0.00 | 0.00 | 0.00 | 41 | 1007.5 |
| 20260504020606 | 68 | 90 | 0.9 | 0.9 | 0.00 | 0.00 | 0.00 | 41 | 1007.5 |
| 20260504020106 | 68 | 90 | 0.9 | 0.9 | 0.00 | 0.00 | 0.00 | 42 | 1007.8 |
| 20260504015534 | 68 | 92 | 0.9 | 0.9 | 0.00 | 0.00 | 0.00 | 42 | 1007.8 |
| 20260504015033 | 68 | 92 | 0.0 | 0.9 | 0.00 | 0.00 | 0.00 | 42 | 1007.8 |
| 20260504014532 | 68 | 93 | 0.9 | 0.9 | 0.00 | 0.00 | 0.00 | 42 | 1007.8 |
| 20260504014031 | 68 | 92 | 0.9 | 0.9 | 0.00 | 0.00 | 0.00 | 43 | 1007.8 |
| 20260504013531 | 68 | 92 | 0.0 | 0.9 | 0.00 | 0.00 | 0.00 | 41 | 1007.8 |
| 20260504013030 | 69 | 89 | 0.0 | 0.9 | 0.00 | 0.00 | 0.00 | 41 | 1007.8 |
| 20260504012459 | 70 | 89 | 0.0 | 0.9 | 0.00 | 0.00 | 0.00 | 39 | 1007.8 |
| 20260504011958 | 70 | 88 | 0.9 | 0.9 | 0.00 | 0.00 | 0.00 | 38 | 1007.8 |
| 20260504011457 | 70 | 71 | 0.9 | 0.9 | 0.00 | 0.00 | 0.00 | 38 | 1007.8 |
| 20260504010957 | 70 | 71 | 0.9 | 0.9 | 0.00 | 0.00 | 0.00 | 39 | 1007.8 |
| 20260504010456 | 71 | 71 | 0.9 | 0.9 | 0.00 | 0.00 | 0.00 | 39 | 1007.8 |
| 20260504005956 | 71 | 76 | 0.0 | 0.9 | 0.00 | 0.00 | 0.00 | 38 | 1007.8 |
| 20260504005455 | 72 | 76 | 0.9 | 0.9 | 0.00 | 0.00 | 0.00 | 38 | 1008.1 |
| 20260504004923 | 72 | 76 | 0.0 | 0.9 | 0.00 | 0.00 | 0.00 | 37 | 1008.1 |
| 20260504004422 | 72 | 76 | 0.0 | 0.9 | 0.00 | 0.00 | 0.00 | 38 | 1008.1 |
| 20260504003922 | 73 | 76 | 0.0 | 0.9 | 0.00 | 0.00 | 0.00 | 36 | 1008.1 |
| 20260504003421 | 73 | 76 | 0.9 | 0.9 | 0.00 | 0.00 | 0.00 | 36 | 1008.1 |
| 20260504002849 | 73 | 76 | 0.0 | 0.9 | 0.00 | 0.00 | 0.00 | 35 | 1008.1 |
| 20260504002348 | 74 | 76 | 0.9 | 0.9 | 0.00 | 0.00 | 0.00 | 35 | 1008.1 |
| 20260504001817 | 74 | 76 | 0.0 | 1.7 | 0.00 | 0.00 | 0.00 | 35 | 1008.1 |
| 20260504001316 | 75 | 77 | 0.9 | 3.5 | 0.00 | 0.00 | 0.00 | 34 | 1008.1 |
| 20260504000815 | 76 | 48 | 0.9 | 3.5 | 0.00 | 0.00 | 0.00 | 32 | 1008.1 |
| 20260504000243 | 76 | 63 | 0.9 | 0.9 | 0.00 | 0.00 | 0.00 | 29 | 1008.1 |
| 20260503235742 | 77 | 63 | 0.9 | 0.9 | 0.00 | 0.00 | 0.00 | 30 | 1008.1 |
| 20260503235241 | 77 | 63 | 0.9 | 1.7 | 0.00 | 0.00 | 0.00 | 30 | 1008.1 |